Location: Mannheim
(49.4880°N, 8.4650°E)
Time: 15:16:54
(UTC+02:00)

ISS - Pass Details

Date: 25 June 2024
Orbit: 409 x 423 km, 51.6° (Epoch: 22 July)

Event Time Altitude Azimuth Distance (km) Brightness Sun altitude
Exits shadow 03:44:44 - 165° (SSE) 1,539 -1.3 -11.1°
Reaches altitude 10° 03:45:03 10° 160° (SSE) 1,481 -1.3 -11.1°
Maximum altitude 03:46:26 12° 135° (SE) 1,362 -1.3 -11.0°
Drops below altitude 10° 03:47:50 10° 111° (ESE) 1,490 -0.8 -10.9°
Sets 03:50:57 0° 79° (E) 2,364 0.8 -10.6°
